sat.trackr.live / text

‹ back to catalog

SCOT-1 (SCOT)

NORAD 62617 · 2025-009J

PAYLOAD ACTIVE UNKNOWN

§ Identity

Operator
Country
SING
Launch date
2025-01-14
Launch site
AFWTR
Launch vehicle
Mass (kg)
RCS (m²)

External: N2YO · Heavens-Above · Gunter

§ Orbital elements

Epoch: 2026-09-21T19:29:09.746304Z

Period
91.74 min
Inclination
97.3792°
Eccentricity
0.0003289
Mean motion
15.69572421 rev/d
Perigee alt
357.9 km
Apogee alt
362.3 km
Semi-major
6,738.3 km
B*
8.9481e-4
RAAN
356.6443°
Arg perigee
261.2653°
Mean anomaly
98.8237°
Rev number
9,442

§ Raw data

SCOT-1 (SCOT)1 62617U 25009J   26264.81191836  .00106556  00000+0  89481-3 0  99902 62617  97.3792 356.6443 0003289 261.2653  98.8237 15.69572421 94427

JSON: /api/v1/satellites/62617 · /tle

For live sub-satellite position, see the globe view (requires WebGL).

§ Visibility from observer

Set your observer location to see the next 7 days of passes ≥ 10°. The values pass through the URL so the page stays shareable.

No JS? Fill the form by hand. The geolocation button needs JavaScript.

§ Radio — SatNOGS DB

ModeDescriptionDownlinkUplink
FM Mode S - Transmitter 2.260 GHz
FM Mode X - Transmitter 8.325 GHz

2 transmitters · refreshed weekly from db.satnogs.org